Regional Weather Roundup
Issued by NWS

Home | Current Version | Previous Version | Graphics & Text | Print | Product List | Glossary Off
Versions: 1 2 3 4 5 6 7 8 9 10 11 12 13 14 15 16 17 18 19 20 21 22 23 24 25 26 27 28 29 30 31 32 33 34 35 36 37 38 39 40 41 42 43 44 45 46 47 48 49 50

010
ASUS43 KTOP 240559
RWRKS

WEATHER ROUNDUP FOR KANSAS
NATIONAL WEATHER SERVICE GOODLAND KS
1200 AM CST TUE JAN 24 2017

NOTE:  "FAIR" INDICATES FEW OR NO CLOUDS BELOW 12,000 FEET WITH NO
SIGNIFICANT WEATHER AND/OR OBSTRUCTIONS TO VISIBILITY.

KSZ001>006-013>018-027>032-041>047-240700-
NORTHWEST KANSAS

CITY           SKY/WX    TMP DP  RH WIND       PRES   REMARKS
GOODLAND       PTCLDY    33  30  88 S12       29.48R WCI  24
6HR MIN TEMP:  25; 6HR MAX TEMP:  42;

HAYS           CLOUDY    37  33  85 SE10      29.56F WCI  30
HILL CITY      CLEAR     34  32  92 E8        29.56F
6HR MIN TEMP:  33; 6HR MAX TEMP:  48;

RUSSELL        CLOUDY    40  31  70 SE18      29.56F WCI  31
6HR MIN TEMP:  38; 6HR MAX TEMP:  46;

$$

KSZ061>065-074>080-084>089-240700-
SOUTHWEST KANSAS

CITY           SKY/WX    TMP DP  RH WIND       PRES   REMARKS
DODGE CITY     PTCLDY    43  35  73 S12       29.52F
6HR MIN TEMP:  39; 6HR MAX TEMP:  51;

ELKHART          N/A     50  26  39 SW15        N/A
GARDEN CITY    PTCLDY    36  30  79 SE14      29.50F WCI  27
6HR MIN TEMP:  36; 6HR MAX TEMP:  53;

GREAT BEND     CLEAR     36  32  85 SE10      29.57F WCI  28
LIBERAL          N/A     46  30  53 SW17      29.52F
$$

KSZ066>073-081>083-090>101-240700-
SOUTHEAST KANSAS

CITY           SKY/WX    TMP DP  RH WIND       PRES   REMARKS
CHANUTE        CLEAR     40  33  76 SE10      29.76F WCI  33
6HR MIN TEMP:  39; 6HR MAX TEMP:  45;

COFFEYVILLE    CLEAR     40  33  76 SE7       29.76F
6HR MIN TEMP:  38; 6HR MAX TEMP:  46;

HUTCHINSON     CLEAR     39  32  76 SE14      29.62F WCI  31
6HR MIN TEMP:  39; 6HR MAX TEMP:  48;

MEDICINE LODGE   N/A     40  31  70 E12G20    29.58F WCI  33
NEWTON         CLEAR     38  32  79 SE16      29.66F WCI  29
PARSONS        CLEAR     41  33  73 E3        29.76F
6HR MIN TEMP:  38; 6HR MAX TEMP:  47;

WICHITA INTL   CLEAR     42  32  67 SE15      29.64F
6HR MIN TEMP:  42; 6HR MAX TEMP:  49;

WICHITA JABRA  CLEAR     40  32  73 SE10      29.66F WCI  33
6HR MIN TEMP:  39; 6HR MAX TEMP:  48;

WINFIELD       CLEAR     44  32  62 SE10      29.68F
6HR MIN TEMP:  42; 6HR MAX TEMP:  51;

$$

KSZ007>012-019>026-033>040-048>060-102>105-240700-
NORTHEAST KANSAS

CITY           SKY/WX    TMP DP  RH WIND       PRES   REMARKS
CONCORDIA      CLEAR     33  32  96 SE14      29.68F FOG     WCI  23
6HR MIN TEMP:  32; 6HR MAX TEMP:  44;

EMPORIA        CLEAR     36  32  85 E9        29.73F
6HR MIN TEMP:  35; 6HR MAX TEMP:  46;

LAWRENCE       CLEAR     30  29  96 E7        29.80F FOG
6HR MIN TEMP:  27; 6HR MAX TEMP:  37;

MANHATTAN      CLOUDY    35  32  88 E3        29.73F
6HR MIN TEMP:  34; 6HR MAX TEMP:  42;

OLATHE IND     CLEAR     33  31  92 E9        29.80F
6HR MIN TEMP:  32; 6HR MAX TEMP:  38;

OLATHE EXE     CLEAR     32  31  96 E8        29.80F
6HR MIN TEMP:  32; 6HR MAX TEMP:  38;

SALINA           N/A    N/A N/A N/A MISG        N/A
TOPEKA BILLARD CLEAR     32  29  88 E7        29.78F FOG
6HR MIN TEMP:  32; 6HR MAX TEMP:  37;

TOPEKA FORBES  CLEAR     34  31  88 E9        29.77F FOG
6HR MIN TEMP:  34; 6HR MAX TEMP:  39;

$$




USA.gov is the U.S. government's official web portal to all federal, state and local government web resources and services.